Simultaneous Nadir Overpasses (SNOs) Predictions

Prediction of SNOs between GOES-16 and LANDSAT-8 Satellite Orbit:

Table of predicted SNOs for the next 14.0 days since TLE Epoch: 2/12/2022
Index Date Time (GOES-16) GOES-16 Lat,Lon LANDSAT-8 Lat,Lon Distance(km) Time Diff (sec)
1 02/13/2022 03:09:42 -0.03, -75.18 0.08, -74.66 59.29 80
2 02/15/2022 02:57:30 -0.03, -75.18 0.72, -71.70 395.86 80
3 02/15/2022 15:21:25 0.04, -75.20 0.39, -76.85 187.81 80
4 02/17/2022 15:06:33 0.04, -75.21 -0.26, -73.90 149.74 80
5 02/18/2022 03:30:36 -0.04, -75.20 -0.84, -79.09 442.28 80
6 02/19/2022 14:54:20 0.04, -75.23 -0.86, -70.94 487.85 80
7 02/20/2022 03:18:23 -0.04, -75.21 -0.24, -76.13 104.07 80
8 02/22/2022 03:03:31 -0.04, -75.23 0.37, -73.16 234.44 80
9 02/22/2022 15:24:46 0.04, -75.26 0.68, -78.33 349.22 80
10 02/24/2022 15:12:33 0.04, -75.28 0.06, -75.37 10.62 80
